Location: *
(43.7000°S, 168.7000°W)
Time: 14:34:03
(UTC+00:00)

Cosmos 1025 Rocket - Pass Details

Date: 07 July 2020
Orbit: 593 x 619 km, 82.5° (Epoch: 04 August)

Event Time Altitude Azimuth Distance (km) Brightness Sun altitude
Rises 17:43:48 0° 339° (NNW) 2,837 6.5 -11.2°
Reaches altitude 10° 17:46:03 10° 333° (NNW) 1,942 5.6 -10.8°
Maximum altitude 17:50:12 48° 258° (WSW) 795 3.2 -10.1°
Drops below altitude 10° 17:54:25 10° 183° (S) 1,966 5.4 -9.4°
Sets 17:56:43 0° 176° (S) 2,877 6.3 -9.0°
